| time (UTC) | temp F | wind direction | speed MPH | gust MPH | rain 1hr in | rain 24hr in | rain mn in | humidity % | barometer mb |
| 20260505031803 | 36 | 285 | 4.0 | 7.0 | 0.00 | 0.00 | 0.00 | 92 | 1000.7 |
| 20260505030905 | 36 | 278 | 4.0 | 6.0 | 0.00 | 0.00 | 0.00 | 93 | 1000.6 |
| 20260505030003 | 36 | 277 | 2.0 | 7.0 | 0.00 | 0.00 | 0.00 | 92 | 1000.4 |
| 20260505025403 | 36 | 277 | 2.0 | 7.0 | 0.00 | 0.00 | 0.00 | 92 | 1000.4 |
| 20260505024526 | 36 | 282 | 2.0 | 4.0 | 0.00 | 0.00 | 0.00 | 92 | 1000.4 |
| 20260505023603 | 37 | 275 | 2.0 | 4.0 | 0.00 | 0.00 | 0.00 | 92 | 1000.1 |
| 20260505022703 | 37 | 286 | 3.0 | 4.0 | 0.00 | 0.00 | 0.00 | 92 | 1000.1 |
| 20260505021803 | 37 | 282 | 2.0 | 4.0 | 0.00 | 0.00 | 0.00 | 92 | 1000.1 |
| 20260505020903 | 37 | 281 | 2.0 | 7.0 | 0.00 | 0.00 | 0.00 | 91 | 999.9 |
| 20260505020026 | 37 | 302 | 4.0 | 11.0 | 0.00 | 0.00 | 0.00 | 92 | 1000.0 |
| 20260505015403 | 37 | 294 | 5.0 | 11.0 | 0.00 | 0.00 | 0.00 | 92 | 999.9 |
| 20260505014503 | 37 | 280 | 5.0 | 11.0 | 0.00 | 0.00 | 0.00 | 92 | 999.6 |
| 20260505013604 | 38 | 283 | 6.0 | 11.0 | 0.00 | 0.00 | 0.00 | 91 | 1000.0 |
| 20260505012703 | 38 | 296 | 4.0 | 8.0 | 0.00 | 0.00 | 0.00 | 90 | 999.7 |
| 20260505011803 | 38 | 279 | 4.0 | 8.0 | 0.00 | 0.00 | 0.00 | 90 | 999.7 |
| 20260505010904 | 39 | 286 | 4.0 | 11.0 | 0.00 | 0.00 | 0.00 | 89 | 999.6 |
| 20260505010003 | 39 | 302 | 3.0 | 11.0 | 0.00 | 0.00 | 0.00 | 89 | 999.6 |
| 20260505005424 | 39 | 302 | 6.0 | 11.0 | 0.00 | 0.00 | 0.00 | 88 | 999.4 |
| 20260505004524 | 39 | 309 | 3.0 | 11.0 | 0.00 | 0.00 | 0.00 | 88 | 999.4 |
| 20260505003603 | 40 | 302 | 6.0 | 15.0 | 0.00 | 0.00 | 0.00 | 87 | 999.3 |
| 20260505002703 | 40 | 305 | 8.0 | 16.0 | 0.00 | 0.00 | 0.00 | 87 | 999.5 |
| 20260505001824 | 41 | 306 | 5.0 | 11.0 | 0.00 | 0.00 | 0.00 | 88 | 999.5 |
| 20260505000903 | 41 | 294 | 4.0 | 9.0 | 0.00 | 0.00 | 0.00 | 88 | 999.1 |
| 20260505000003 | 41 | 321 | 4.0 | 9.0 | 0.00 | 0.00 | 0.00 | 87 | 999.0 |
| 20260504235403 | 41 | 322 | 6.0 | 9.0 | 0.00 | 0.00 | 0.00 | 87 | 998.6 |
| 20260504234524 | 41 | 304 | 4.0 | 11.0 | 0.00 | 0.00 | 0.00 | 87 | 998.6 |
| 20260504233624 | 41 | 304 | 7.0 | 11.0 | 0.00 | 0.00 | 0.00 | 86 | 998.7 |
| 20260504232724 | 42 | 293 | 8.0 | 13.0 | 0.00 | 0.00 | 0.00 | 84 | 998.3 |
| 20260504231803 | 42 | 297 | 5.0 | 11.0 | 0.00 | 0.00 | 0.00 | 84 | 998.3 |
| 20260504230903 | 42 | 304 | 5.0 | 13.0 | 0.00 | 0.00 | 0.00 | 83 | 998.3 |
| 20260504230003 | 42 | 296 | 4.0 | 15.0 | 0.00 | 0.00 | 0.00 | 82 | 998.4 |
| 20260504225405 | 42 | 294 | 7.0 | 16.0 | 0.00 | 0.00 | 0.00 | 82 | 998.2 |
| 20260504224503 | 43 | 305 | 4.0 | 11.0 | 0.00 | 0.00 | 0.00 | 82 | 998.3 |
| 20260504223624 | 44 | 301 | 6.0 | 15.0 | 0.00 | 0.00 | 0.00 | 81 | 998.0 |
| 20260504222703 | 44 | 299 | 6.0 | 15.0 | 0.00 | 0.00 | 0.00 | 80 | 997.9 |
| 20260504221803 | 45 | 295 | 5.0 | 11.0 | 0.00 | 0.00 | 0.00 | 78 | 998.0 |
| 20260504220903 | 46 | 319 | 3.0 | 13.0 | 0.00 | 0.00 | 0.00 | 74 | 997.5 |
| 20260504220003 | 47 | 325 | 6.0 | 13.0 | 0.00 | 0.00 | 0.00 | 71 | 997.2 |
| 20260504215404 | 48 | 326 | 8.0 | 13.0 | 0.00 | 0.00 | 0.00 | 67 | 997.1 |
| 20260504214503 | 49 | 315 | 4.0 | 16.0 | 0.00 | 0.00 | 0.00 | 65 | 996.9 |
| 20260504213624 | 48 | 198 | 2.0 | 4.0 | 0.00 | 0.00 | 0.00 | 60 | 996.6 |
| 20260504212703 | 48 | 196 | 2.0 | 4.0 | 0.00 | 0.00 | 0.00 | 61 | 996.5 |
| 20260504211803 | 48 | 270 | 0.0 | 2.0 | 0.00 | 0.00 | 0.00 | 65 | 996.6 |
| 20260504210903 | 48 | 288 | 0.0 | 2.0 | 0.00 | 0.00 | 0.00 | 65 | 996.6 |
| 20260504210005 | 50 | 286 | 1.0 | 7.0 | 0.00 | 0.00 | 0.00 | 61 | 996.7 |
| 20260504205424 | 50 | 289 | 3.0 | 9.0 | 0.00 | 0.00 | 0.00 | 61 | 996.6 |
| 20260504204503 | 51 | 282 | 4.0 | 8.0 | 0.00 | 0.00 | 0.00 | 58 | 997.0 |
| 20260504203605 | 51 | 260 | 3.0 | 11.0 | 0.00 | 0.00 | 0.00 | 53 | 997.1 |
| 20260504202705 | 52 | 247 | 5.0 | 21.0 | 0.00 | 0.00 | 0.00 | 51 | 997.2 |
| 20260504201804 | 52 | 245 | 6.0 | 14.0 | 0.00 | 0.00 | 0.00 | 45 | 996.9 |
| 20260504200927 | 52 | 230 | 10.0 | 11.0 | 0.00 | 0.00 | 0.00 | 43 | 996.9 |
| 20260504200003 | 51 | 242 | 7.0 | 11.0 | 0.00 | 0.00 | 0.00 | 42 | 997.0 |
| 20260504195403 | 50 | 230 | 4.0 | 7.0 | 0.00 | 0.00 | 0.00 | 41 | 997.1 |
| 20260504194503 | 50 | 201 | 3.0 | 7.0 | 0.00 | 0.00 | 0.00 | 40 | 996.9 |
| 20260504193603 | 51 | 205 | 3.0 | 7.0 | 0.00 | 0.00 | 0.00 | 39 | 997.0 |
| 20260504192705 | 51 | 230 | 2.0 | 4.0 | 0.00 | 0.00 | 0.00 | 38 | 997.1 |
| 20260504191803 | 51 | 243 | 2.0 | 2.0 | 0.00 | 0.00 | 0.00 | 37 | 997.1 |
| 20260504190906 | 52 | 233 | 2.0 | 4.0 | 0.00 | 0.00 | 0.00 | 36 | 997.2 |
| 20260504190004 | 53 | 227 | 2.0 | 4.0 | 0.00 | 0.00 | 0.00 | 35 | 997.1 |
| 20260504185404 | 53 | 226 | 2.0 | 4.0 | 0.00 | 0.00 | 0.00 | 33 | 997.0 |
| 20260504184505 | 54 | 240 | 2.0 | 4.0 | 0.00 | 0.00 | 0.00 | 32 | 997.2 |
| 20260504183603 | 55 | 257 | 2.0 | 9.0 | 0.00 | 0.00 | 0.00 | 32 | 997.3 |
| 20260504182703 | 55 | 237 | 5.0 | 11.0 | 0.00 | 0.00 | 0.00 | 30 | 997.3 |
| 20260504181803 | 56 | 256 | 4.0 | 11.0 | 0.00 | 0.00 | 0.00 | 30 | 997.3 |
| 20260504180904 | 56 | 259 | 4.0 | 9.0 | 0.00 | 0.00 | 0.00 | 29 | 997.4 |
| 20260504180004 | 56 | 265 | 4.0 | 11.0 | 0.00 | 0.00 | 0.00 | 28 | 997.2 |
| 20260504175403 | 57 | 241 | 4.0 | 11.0 | 0.00 | 0.00 | 0.00 | 29 | 997.2 |
| 20260504174505 | 58 | 281 | 4.0 | 11.0 | 0.00 | 0.00 | 0.00 | 28 | 997.4 |
| 20260504173603 | 59 | 250 | 2.0 | 9.0 | 0.00 | 0.00 | 0.00 | 32 | 997.1 |
| 20260504172726 | 59 | 259 | 6.0 | 13.0 | 0.00 | 0.00 | 0.00 | 31 | 997.2 |
| 20260504171803 | 59 | 271 | 7.0 | 13.0 | 0.00 | 0.00 | 0.00 | 31 | 997.1 |
| 20260504170905 | 59 | 263 | 7.0 | 14.0 | 0.00 | 0.00 | 0.00 | 30 | 997.1 |
| 20260504150903 | 57 | 254 | 2.0 | 11.0 | 0.00 | 0.00 | 0.00 | 50 | 996.9 |
| 20260504140903 | 58 | 261 | 4.0 | 13.0 | 0.00 | 0.00 | 0.00 | 53 | 997.3 |
| 20260504081803 | 50 | 269 | 3.0 | 9.0 | 0.00 | 0.00 | 0.00 | 79 | 998.7 |
| 20260504080903 | 50 | 263 | 4.0 | 7.0 | 0.00 | 0.00 | 0.00 | 79 | 998.6 |
| 20260504050005 | 44 | 159 | 2.0 | 4.0 | 0.00 | 0.00 | 0.00 | 96 | 1000.1 |
| 20260504045403 | 43 | 150 | 2.0 | 4.0 | 0.00 | 0.00 | 0.00 | 96 | 1000.1 |
| 20260504044503 | 43 | 135 | 2.0 | 4.0 | 0.00 | 0.00 | 0.00 | 97 | 1000.3 |
| 20260504043603 | 43 | 139 | 1.0 | 2.0 | 0.00 | 0.00 | 0.00 | 98 | 1000.2 |
| 20260504042704 | 43 | 157 | 0.0 | 2.0 | 0.00 | 0.00 | 0.00 | 98 | 1000.7 |
| 20260504041803 | 43 | 157 | 2.0 | 4.0 | 0.00 | 0.00 | 0.00 | 98 | 1000.8 |
| 20260504040903 | 43 | 157 | 2.0 | 2.0 | 0.00 | 0.00 | 0.00 | 98 | 1000.7 |
| 20260504040003 | 43 | 155 | 1.0 | 2.0 | 0.00 | 0.00 | 0.00 | 98 | 1001.0 |
| 20260504035403 | 43 | 146 | 1.0 | 4.0 | 0.00 | 0.00 | 0.00 | 98 | 1000.9 |
| 20260504034503 | 43 | 136 | 2.0 | 4.0 | 0.00 | 0.00 | 0.00 | 98 | 1000.9 |
| 20260504033603 | 43 | 151 | 2.0 | 4.0 | 0.00 | 0.00 | 0.00 | 97 | 1000.9 |
| 20260504032724 | 43 | 147 | 2.0 | 4.0 | 0.00 | 0.00 | 0.00 | 97 | 1001.0 |